Tracking 35331 objects as of 15-Sep-2026
HD Live streaming from Space Station
objects crossing your sky now

COSMOS 229


COSMOS 229 is no longer on orbit


NORAD ID: 3304
Int'l Code: 1968-054A
Launch date: June 26, 1968
Source: Commonwealth of Independent States (former USSR) (CIS)
Launch site: PLESETSK MISSILE AND SPACE COMPLEX (PKMTR)
Decay date: 1968-07-04
Your satellite tracking list
Your tracking list is empty




NASA's NSSDC Master Catalog

Two Line Element Set (TLE):
1 03304U 68054  A 68186.05898208  .00133760 +00000-0 +00000-0 0  9992
2 03304 072.8304 065.0028 0087119 038.1668 322.5574 16.05074507001223
Source of the keplerian elements: AFSPC